Terminal Aerodrome Forecast
Issued by NWS

Current Version | Previous Version | Text Only | Print | Product List | Glossary On
Versions: 1 2 3 4 5 6 7 8 9 10 11 12 13 14 15 16 17 18 19 20 21 22 23 24 25 26
000
FTUS41 KCTP 202320
TAFLNS
TAF
KLNS 202320Z 2100/2124 13009KT P6SM SKC
     FM210800 07002KT P6SM SKC=

USA.gov is the U.S. government's official web portal to all federal, state and local government web resources and services.